ARIANE 2 DEB, 40785

Orbit data source: Space-Track

ARIANE 2 DEB, 40785 is space debris in HEO originally from a launch on Fri, 27 Jan 1989 UTC launched from the French Guiana (FRGUI). Debris objects in space refer to the collection of defunct objects orbiting the Earth. Examples of debris include non-operational satellites, rocket bodies, and fragments generated from explosions, collisions, or faulty payload assembly.

Loading next visibility...
Identifier
40785, 1989-006CE
Orbit
HEO
Country
Flag of FRFR
Related business
Manufacturer
EADS/LV
Mission
Spacecraft
Bus & Motor
Unknown
Mass
Unknown
Launch date (UTC)
1989-01-27 (37 years ago)
Launch vehicle
Unknown
Launch site
French Guiana (FRGUI)
Object type
Payload
Rocket body
Debris
Shape & HBR
Unknown shape, 1.1 m
Radar Cross Section
Medium (>0.1 m² and <1 m²)

Expand to show TLE details & history
Last TLE update: 3 months ago

TLE from 3 months ago
0 ARIANE 2 DEB
1 40785U 89006CE  25254.52494609  .00000194  00000-0  12977-2 0  9996
2 40785   7.9677  30.3911 7068185  11.5607 269.5081  2.42427986165427
Epoch: 2025-09-11T12:35Z
TLE epoch observation values (Epoch: 2025-09-11T12:35:55.342Z)
Latitude
-4.71017°
Longitude
66.75115°
Altitude
26,259.295 km
Speed
2.72 km/s
True Right ascension
16h 26m 04s
True Declination
-4° 42' 15"
Sunlit
Object was in daylight at epoch
Visualization orbit readout
Latitude
Unknown
Longitude
Unknown
Altitude
Unknown
Speed
Unknown
Apparent Right ascension
Unknown
Apparent Declination
Unknown
Sunlit
N/A
Visualization observer readout
Local Sidereal Time
06:07:16
Azimuth
Unknown
Elevation
Unknown
Doppler factor
Unknown
Orbital elements
Apogee altitude
33,582.285 km
Perigee altitude
485.895 km
Semi-major axis
23,412.227 km
Eccentricity
0.70682
Inclination
7.9677°
RAAN
30.3911°
Arg. of periapsis
11.5607°
True anomaly
204.8311°
Mean anomaly
269.5081°
Eccentric anomaly
235.95268°
Mean motion
0.60587 °/min
Orbital period
594.19 mins
BSTAR
0.0012977
Loading maneuver chart data...
Computing Atmospheric mass density...
Loading historical data...
Loading historical data...
Loading historical data...
Loading historical data...
Loading historical data...
Loading historical data...
Loading historical data...

Documentation

Showing up to 5 results
|